Weather History for St. Joseph, MO

Change the Weather History Date:

Tuesday, November 27, 2012

  Actual Average Record
Temperature  
Mean Temperature 25 °F 36 °F  
Max Temperature 40 °F 47 °F 72 °F (1990)
Min Temperature 10 °F 26 °F 10 °F (1976)
Degree Days  
Heating Degree Days 40 29  
Month to date heating degree days 532 604  
Since 1 July heating degree days 1033 1023  
Cooling Degree Days 0 0  
Month to date cooling degree days 5 0  
Year to date cooling degree days 1565 1220  
Moisture  
Dew Point 13 °F    
Average Humidity 61    
Maximum Humidity 88    
Minimum Humidity 33    
Precipitation  
Precipitation 0.00 in 0.04 in 0.96 in (2006)
Month to date precipitation 1.79 1.43  
Year to date precipitation 22.31 33.96  
Sea Level Pressure  
Sea Level Pressure 30.40 in    
Wind  
Wind Speed 4 mph (South)    
Max Wind Speed 15 mph    
Max Gust Speed 17 mph    
Visibility 10 miles    
Events      
T = Trace of Precipitation, MM = Missing Value Source: NWS Daily Summary

Daily Weather History Graph

Daily Weather History Graph

Search for Another Location

Airport:

Trip Planner

Search our weather history database for the weather conditions in past years. The results will help you decide how hot, cold, wet, or windy it might be!

Date:

Astronomy

Nov. 27, 2012 Rise Set
Actual Time 7:18 AM CST 4:56 PM CST
Civil Twilight 6:48 AM CST 5:26 PM CST
Nautical Twilight 6:15 AM CST 5:59 PM CST
Astronomical Twilight 5:42 AM CST 6:32 PM CST
Moon 4:28 PM CST (11/27) 6:23 AM CST (11/27)
Length of Visible Light 10h 37m
Length of Day
9h 38m
Waxing Gibbous, 99% of the Moon is Illuminated
Nov 27
Waxing Gibbous
Nov 28
Full
Dec 6
Last Quarter
Dec 13
New
Dec 19
First Quarter

Hourly Weather History & Observations

Time (CST) Temp. Windchill Dew Point Humidity Pressure Visibility Wind Dir Wind Speed Gust Speed Precip Events Conditions
12:53 AM 15.1 °F - 8.1 °F 74% 30.50 in 10.0 mi Calm Calm - N/A   Clear
1:53 AM 12.9 °F - 7.0 °F 77% 30.50 in 10.0 mi Calm Calm - N/A   Clear
2:53 AM 16.0 °F - 8.1 °F 71% 30.50 in 10.0 mi Calm Calm - N/A   Clear
3:53 AM 14.0 °F - 8.1 °F 77% 30.49 in 10.0 mi Calm Calm - N/A   Clear
4:53 AM 12.0 °F - 7.0 °F 80% 30.48 in 10.0 mi Calm Calm - N/A   Clear
5:53 AM 12.9 °F - 8.1 °F 81% 30.49 in 10.0 mi Calm Calm - N/A   Clear
6:53 AM 14.0 °F - 10.0 °F 84% 30.48 in 10.0 mi Calm Calm - N/A   Clear
7:53 AM 12.9 °F 6.9 °F 9.0 °F 84% 30.48 in 10.0 mi SW 3.5 mph - N/A   Clear
8:53 AM 19.0 °F 12.3 °F 15.1 °F 85% 30.49 in 10.0 mi South 4.6 mph - N/A   Clear
9:53 AM 24.1 °F 17.0 °F 15.1 °F 69% 30.48 in 10.0 mi South 5.8 mph - N/A   Clear
10:53 AM 28.9 °F 21.1 °F 14.0 °F 54% 30.46 in 10.0 mi South 8.1 mph - N/A   Clear
11:53 AM 33.1 °F - 14.0 °F 46% 30.41 in - North - - N/A   Clear
12:53 PM 36.0 °F 29.6 °F 15.1 °F 43% 30.37 in 10.0 mi South 8.1 mph - N/A   Clear
1:53 PM 39.0 °F 31.0 °F 15.1 °F 38% 30.33 in 10.0 mi South 13.8 mph - N/A   Clear
2:53 PM 39.9 °F 32.5 °F 12.9 °F 33% 30.30 in 7.0 mi SSW 12.7 mph - N/A   Clear
3:53 PM 39.9 °F 32.9 °F 14.0 °F 35% 30.30 in 10.0 mi SSW 11.5 mph - N/A   Clear
4:53 PM 37.0 °F 30.4 °F 14.0 °F 39% 30.29 in 10.0 mi South 9.2 mph - N/A   Clear
5:53 PM 30.0 °F 25.2 °F 16.0 °F 56% 30.30 in 10.0 mi South 4.6 mph - N/A   Clear
6:53 PM 30.9 °F 25.2 °F 15.1 °F 52% 30.31 in 10.0 mi South 5.8 mph - N/A   Clear
7:53 PM 30.9 °F - 16.0 °F 54% 30.32 in 10.0 mi Calm Calm - N/A   Clear
8:53 PM 24.1 °F 19.7 °F 15.1 °F 69% 30.33 in 10.0 mi South 3.5 mph - N/A   Clear
9:53 PM 24.1 °F - 17.1 °F 75% 30.34 in 10.0 mi Calm Calm - N/A   Clear
10:53 PM 21.9 °F 15.7 °F 16.0 °F 78% 30.33 in 10.0 mi South 4.6 mph - N/A   Clear
11:53 PM 23.0 °F - 16.0 °F 74% 30.34 in 10.0 mi Calm Calm - N/A   Clear